Hourly Weather Roundup
Issued by NWS Central Illinois

Home | Current Version | Previous Version | Text Only | Print | Product List | Glossary On
Versions: 1 2 3 4 5 6 7 8 9 10 11 12 13 14 15 16 17 18 19 20 21 22 23 24 25 26 27 28 29 30 31 32 33 34 35 36 37 38 39 40 41 42 43 44 45 46 47 48 49 50
000
NZUS43 KILX 271210
HWRILX

AREA WEATHER ROUNDUP
NATIONAL WEATHER SERVICE, LINCOLN IL
700 AM CDT WED JUL 27 2016


CITY           SKY/WX    TMP DP  RH WIND       PRES   REMARKS
BLOOMINGTON    SUNNY     70  68  93 SE3       30.05S
6HR MIN TEMP:  67; 6HR MAX TEMP:  72;

CHAMPAIGN      SUNNY     69  66  90 E3        30.05R
6HR MIN TEMP:  63; 6HR MAX TEMP:  70;

DANVILLE       SUNNY     67  67  99 CALM      30.03R FOG
6HR MIN TEMP:  63; 6HR MAX TEMP:  67;

DECATUR        PTSUNNY   69  66  90 NE3       30.04R
6HR MIN TEMP:  65; 6HR MAX TEMP:  69;

EFFINGHAM      CLOUDY    72  71  98 CALM      30.05R
FLORA          CLOUDY    74  73  96 N5        30.02R
6HR MIN TEMP:  73; 6HR MAX TEMP:  76;

GALESBURG      MOSUNNY   68  67  98 CALM      30.03S FOG
JACKSONVILLE   CLOUDY    71  69  93 E3        30.01F
6HR MIN TEMP:  70; 6HR MAX TEMP:  73;

LACON          SUNNY     70  68  92 CALM      30.02S
6HR MIN TEMP:  67; 6HR MAX TEMP:  70;

LAWRENCEVILLE  CLOUDY    74  73  97 NE3       30.02R
6HR MIN TEMP:  73; 6HR MAX TEMP:  75;

LITCHFIELD       N/A    N/A N/A N/A MISG        N/A
$$


CITY           SKY/WX    TMP DP  RH WIND       PRES   REMARKS
LINCOLN        SUNNY     69  68  97 CALM      30.03S
6HR MIN TEMP:  65; 6HR MAX TEMP:  70;

MACOMB         PTSUNNY   67  67 100 E3        30.04S FOG
MATTOON        PTSUNNY   69  66  90 CALM      30.04R
6HR MIN TEMP:  67; 6HR MAX TEMP:  70;

MT CARMEL AP   CLOUDY    74  73  94 CALM      30.01S FOG
6HR MIN TEMP:  73; 6HR MAX TEMP:  75;

OLNEY-NOBLE AP LGT RAIN  72  72 100 CALM      30.03R
PARIS          CLOUDY    67  67 100 CALM      30.05S
6HR MIN TEMP:  63; 6HR MAX TEMP:  67;

PEORIA         SUNNY     72  70  93 CALM      30.03S
6HR MIN TEMP:  68; 6HR MAX TEMP:  74;

PONTIAC        SUNNY     70  70 100 CALM      30.05R FOG
RANTOUL        NOT AVBL
ROBINSON       CLOUDY    71  71 100 N5        30.04R
6HR MIN TEMP:  68; 6HR MAX TEMP:  71;

SPRINGFIELD    MOSUNNY   73  69  87 E3        30.03S
6HR MIN TEMP:  71; 6HR MAX TEMP:  74;

TAYLORVILLE    PTSUNNY   72  69  89 MISG      30.03S
$$

...REGIONAL REPORTS...


CITY           SKY/WX    TMP DP  RH WIND       PRES   REMARKS
CHICAGO O`HARE MOSUNNY   72  66  81 CALM      30.02S
KANKAKEE       SUNNY     68  67  94 CALM      30.04S
MOLINE         SUNNY     69  65  86 E6        30.02S
MOUNT STERLING SUNNY     69  68  98 CALM      30.00F FOG
MOUNT VERNON   CLOUDY    73  70  88 MISG      30.01R
PITTSFIELD     PTSUNNY   73  72  97 CALM      30.02S
QUINCY         CLEAR     72  69  90 E6        30.00F
ROCKFORD       PTSUNNY   68  63  84 CALM      30.04F
$$


CITY           SKY/WX    TMP DP  RH WIND       PRES   REMARKS
BURLINGTON     SUNNY     71  70  96 CALM      30.01S
CEDAR RAPIDS   MOSUNNY   65  65 100 CALM      30.01S
DES MOINES     CLOUDY    70  66  87 CALM      30.00R
KIRKSVILLE     RAIN      70  65  84 NE3       30.02S
OTTUMWA        CLEAR     66  65  96 SE3       29.99F
ST LOUIS       CLOUDY    78  71  79 S7        30.01S HX  80
$$


CITY           SKY/WX    TMP DP  RH WIND       PRES   REMARKS
TERRE HAUTE    CLOUDY    71  68  90 CALM      30.04R
EVANSVILLE     CLOUDY    76  74  93 CALM      30.02R
INDIANAPOLIS   MOSUNNY   73  67  81 CALM      30.05R
LAFAYETTE      MOSUNNY   66  66 100 CALM      30.04S FOG
MADISON        MOSUNNY   71  67  87 CALM      30.02S
MILWAUKEE      MOSUNNY   76  65  68 W5        30.01S
$$






USA.gov is the U.S. government's official web portal to all federal, state and local government web resources and services.